Weather History for GMMX - December, 2012

Change the Weather History Date:

Friday, December 14, 2012

  Actual Average Record
Temperature  
Mean Temperature 54 °F -  
Max Temperature 66 °F 64 °F 75 °F (1998)
Min Temperature 41 °F 43 °F 37 °F (2005)
Degree Days  
Heating Degree Days 12    
Growing Degree Days 4 (Base 50)    
Moisture  
Dew Point 44 °F    
Average Humidity 70    
Maximum Humidity 93    
Minimum Humidity 33    
Precipitation  
Precipitation 0.00 in 0.04 in - ()
Sea Level Pressure  
Sea Level Pressure 30.18 in    
Wind  
Wind Speed 2 mph ()    
Max Wind Speed 8 mph    
Max Gust Speed -    
Visibility 5.8 miles    
Events      
Averages and records for this station are not official NWS values.
T = Trace of Precipitation, MM = Missing Value Source: Averaged Metar Reports

Daily Weather History Graph

Daily Weather History Graph

Search for Another Location

Airport or City:

Trip Planner

Search our weather history database for the weather conditions in past years. The results will help you decide how hot, cold, wet, or windy it might be!

Date:

Astronomy

Dec. 14, 2012 Rise Set
Actual Time 7:23 AM WET 5:30 PM WET
Civil Twilight 6:56 AM WET 5:57 PM WET
Nautical Twilight 6:26 AM WET 6:27 PM WET
Astronomical Twilight 5:56 AM WET 6:57 PM WET
Moon 8:18 AM WET (12/14) 7:03 PM WET (12/14)
Length of Visible Light 11h 00m
Length of Day
10h 06m
New Moon, 2% of the Moon is Illuminated
Dec 14
New Moon
Dec 20
First Quarter
Dec 28
Full
Jan 5
Last Quarter
Jan 11
New

Hourly Weather History & Observations

Time (WET) Temp. Windchill Dew Point Humidity Pressure Visibility Wind Dir Wind Speed Gust Speed Precip Events Conditions
12:00 AM 49 °F - 44 °F 75% 30.14 in 6 mi Calm Calm - -  
12:00 AM 48.2 °F - 44.6 °F 87% 30.12 in 5.6 mi Calm Calm - N/A   Unknown
1:00 AM 46.4 °F - 42.8 °F 87% 30.09 in 5.0 mi Calm Calm - N/A   Unknown
1:30 AM 44.6 °F 43.1 °F 41.0 °F 87% 30.09 in - East 3.5 mph - N/A   Clear
2:00 AM 44.6 °F 43.1 °F 42.8 °F 93% 30.12 in - ENE 3.5 mph - N/A   Clear
2:30 AM 46.4 °F - 42.8 °F 87% 30.12 in 6.2 mi Calm Calm - N/A   Unknown
3:00 AM 45 °F - 43 °F 88% 30.18 in 6 mi Calm Calm - -  
3:00 AM 44.6 °F - 42.8 °F 93% 30.15 in 6.2 mi Calm Calm - N/A   Unknown
3:30 AM 46.4 °F - 42.8 °F 87% 30.15 in 6.2 mi Calm Calm - N/A   Unknown
4:00 AM 46.4 °F - 41.0 °F 81% 30.15 in 6.2 mi Calm Calm - N/A   Unknown
4:30 AM 46.4 °F - 41.0 °F 81% 30.15 in - Calm Calm - N/A   Clear
5:00 AM 46.4 °F 43.5 °F 41.0 °F 81% 30.15 in - SSE 5.8 mph - N/A   Clear
5:30 AM 46.4 °F - 41.0 °F 81% 30.15 in - Variable 1.2 mph - N/A   Clear
6:00 AM 44 °F - 40 °F 82% 30.19 in 6 mi ENE 4.6 mph - -  
6:00 AM 44.6 °F 42.2 °F 41.0 °F 87% 30.15 in - ENE 4.6 mph - N/A   Clear
6:30 AM 41.0 °F 36.4 °F 39.2 °F 93% 30.15 in - ENE 6.9 mph - N/A   Clear
7:00 AM 42.8 °F 39.3 °F 41.0 °F 93% 30.15 in - East 5.8 mph - N/A   Clear
7:30 AM 41.0 °F 36.4 °F 39.2 °F 93% 30.15 in - East 6.9 mph - N/A   Clear
8:00 AM 42.8 °F 38.0 °F 41.0 °F 93% 30.15 in - East 8.1 mph - N/A   Clear
8:30 AM 44.6 °F 40.7 °F 42.8 °F 93% 30.15 in 5.6 mi East 6.9 mph - N/A   Unknown
9:00 AM 48 °F - 44 °F 81% 30.20 in 6 mi ENE 3.5 mph - -   Clear
9:00 AM 48.2 °F - 42.8 °F 82% 30.18 in - NE 3.5 mph - N/A   Clear
9:30 AM 53.6 °F - 44.6 °F 72% 30.18 in - Variable 1.2 mph - N/A   Clear
10:00 AM 55.4 °F - 46.4 °F 72% 30.18 in 5.6 mi ESE 4.6 mph - N/A   Unknown
10:30 AM 57.2 °F - 46.4 °F 67% 30.18 in - SE 4.6 mph - N/A   Clear
11:00 AM 60.8 °F - 46.4 °F 59% 30.18 in - Variable 2.3 mph - N/A   Clear
11:30 AM 62.6 °F - 46.4 °F 55% 30.18 in - NNW 4.6 mph - N/A   Clear
12:00 PM 62 °F - 47 °F 48% 30.15 in 6 mi North 3.5 mph - -   Clear
12:00 PM 62.6 °F - 46.4 °F 55% 30.18 in - North 3.5 mph - N/A   Clear
12:30 PM 62.6 °F - 48.2 °F 59% 30.15 in 5.0 mi North 3.5 mph - N/A   Unknown
1:00 PM 64.4 °F - 46.4 °F 52% 30.15 in - Calm Calm - N/A   Clear
1:30 PM 66.2 °F - 46.4 °F 49% 30.18 in - Calm Calm - N/A   Clear
2:00 PM 66.2 °F - 46.4 °F 49% 30.18 in - NW 8.1 mph - N/A   Clear
2:30 PM 66.2 °F - 46.4 °F 49% 30.18 in - WNW 6.9 mph - N/A   Clear
3:00 PM 66 °F - 44 °F 33% 30.16 in 6 mi West 8.1 mph - -   Clear
3:00 PM 66.2 °F - 44.6 °F 46% 30.18 in - West 8.1 mph - N/A   Clear
3:30 PM 66.2 °F - 44.6 °F 46% 30.18 in - West 4.6 mph - N/A   Clear
4:00 PM 66.2 °F - 44.6 °F 46% 30.18 in - West 6.9 mph - N/A   Clear
4:30 PM 66.2 °F - 44.6 °F 46% 30.21 in - West 5.8 mph - N/A   Clear
5:00 PM 62.6 °F - 44.6 °F 52% 30.21 in - WNW 4.6 mph - N/A   Clear
5:30 PM 62.6 °F - 44.6 °F 52% 30.21 in - NW 4.6 mph - N/A   Clear
6:00 PM 61 °F - 44 °F 43% 30.20 in 6 mi Calm Calm - -   Clear
6:00 PM 60.8 °F - 44.6 °F 55% 30.21 in - NW 1.2 mph - N/A   Clear
6:30 PM 59.0 °F - 44.6 °F 59% 30.21 in 5.6 mi WSW 1.2 mph - N/A   Unknown
7:00 PM 59.0 °F - 44.6 °F 59% 30.21 in 5.6 mi Calm Calm - N/A   Unknown
7:30 PM 57.2 °F - 44.6 °F 63% 30.24 in 5.0 mi West 1.2 mph - N/A   Unknown
8:00 PM 55.4 °F - 44.6 °F 67% 30.24 in - Calm Calm - N/A   Clear
8:30 PM 55.4 °F - 44.6 °F 67% 30.24 in - Calm Calm - N/A   Clear
9:00 PM 55 °F - 45 °F 60% 30.26 in 6 mi Calm Calm - -   Clear
9:00 PM 55.4 °F - 44.6 °F 67% 30.24 in - Calm Calm - N/A   Clear
9:30 PM 55.4 °F - 46.4 °F 72% 30.24 in - Calm Calm - N/A   Clear
10:00 PM 53.6 °F - 44.6 °F 72% 30.24 in - Calm Calm - N/A   Clear
10:30 PM 53.6 °F - 44.6 °F 72% 30.24 in - South 3.5 mph - N/A   Clear
11:00 PM 51.8 °F - 44.6 °F 76% 30.27 in - Calm Calm - N/A   Clear
11:30 PM 50.0 °F - 44.6 °F 82% 30.27 in - Calm Calm - N/A   Clear